{"data":{"norad_id":41890,"epoch":"2026-09-20T05:07:07.012704Z","epoch_age_seconds":39165,"freshness":"FRESH","line1":"1 41890U 16078G   26263.21327561  .00026080  00000+0  25362-3 0  9996","line2":"2 41890  34.9441 314.5767 0003720  35.6902 324.4073 15.65248830543871","mean_motion":15.6524883,"eccentricity":0.000372,"inclination_deg":34.9441,"raan_deg":314.5767,"arg_perigee_deg":35.6902,"mean_anomaly_deg":324.4073,"bstar":0.00025362,"rev_number":54387,"period_min":91.998152140449,"perigee_km":370.01197718387,"apogee_km":375.03446838962,"semimajor_km":6750.6602227867,"source":"CELESTRAK","updated_at":"2026-09-20T09:00:33.219085Z"}}